52,2013-07-17 19:26:40,1374089200,55.23692,-10.11362,4,1,2013-07-17 19:25:00,1374089100,19.48,1,15.8,0,4095,55.2022,-10.0748,34,48
53,2013-07-17 20:06:10,1374091570,55.18217,-10.16442,2,3,2013-07-17 20:00:00,1374091200,17.02,2,15.8,30,4095,55.2022,-10.0748,34,48
54,2013-07-17 20:29:21,1374092961,55.24858,-11.33461,143,2,2013-07-17 20:28:00,1374092880,15.15,7,15.8,0,4095,55.1872,-10.0798,22,44
55,2013-07-17 21:06:14,1374095174,55.18737,-10.10259,2,2,2013-07-17 21:00:00,1374094800,15.14,8,15.8,30,0,55.1916,-10.0728,14,44
56,2013-07-17 22:06:08,1374098768,55.21303,-10.04073,10,2,2013-07-17 22:00:00,1374098400,15.12,8,15.8,30,60,55.1916,-10.0728,14,44
57,2013-07-17 23:06:20,1374102380,55.16348,-10.02979,3,1,2013-07-17 23:00:00,1374102000,15.11,8,15.8,30,120,55.1916,-10.0728,14,44
58,2013-07-18 00:06:09,1374105969,55.21816,-9.97886,4,1,2013-07-18 00:00:00,1374105600,15.1,6,15.8,30,0,55.1912,-10.028,34,44
59,2013-07-18 01:06:12,1374109572,55.21303,-10.04073,9,2,2013-07-18 01:00:00,1374109200,15.1,7,15.8,30,60,55.1912,-10.028,34,44
60,2013-07-18 02:06:11,1374113171,55.1686,-9.96798,2,2,2013-07-18 02:00:00,1374112800,15.09,7,15.8,30,120,55.1912,-10.028,34,44
61,2013-07-18 03:06:14,1374116774,55.15833,-10.09158,2,3,2013-07-18 03:00:00,1374116400,15.09,7,15.8,30,0,55.1838,-10.022,34,44
62,2013-07-18 04:06:10,1374120370,55.16348,-10.02979,2,0,2013-07-18 04:00:00,1374120000,15.09,6,15.8,30,60,55.1838,-10.022,34,44
63,2013-07-18 05:06:13,1374123973,55.19766,-9.97886,3,1,2013-07-18 05:00:00,1374123600,15.08,9,15.8,30,120,55.1838,-10.022,34,44
64,2013-07-18 06:06:14,1374127574,55.21816,-9.97886,2,1,2013-07-18 06:00:00,1374127200,15.09,7,15.8,30,0,55.1954,-10.036,34,44
65,2013-07-18 07:06:10,1374131170,55.20787,-10.10259,2,2,2013-07-18 07:00:00,1374130800,15.11,6,15.8,30,60,55.1954,-10.036,34,44
66,2013-07-18 08:06:09,1374134769,55.20787,-10.10259,4,1,2013-07-18 08:00:00,1374134400,15.13,6,15.8,30,120,55.1954,-10.036,34,44
67,2013-07-18 09:06:13,1374138373,55.19253,-10.04073,3,30,2013-07-18 09:00:00,1374138000,15.17,5,15.8,30,0,55.211,-10.0316,34,48
68,2013-07-18 10:06:12,1374141972,55.20159,-12.80148,190,2,2013-07-18 10:00:00,1374141600,15.19,5,15.8,30,60,55.211,-10.0316,34,48
69,2013-07-18 11:06:08,1374145568,55.21816,-9.97886,2,3,2013-07-18 11:00:00,1374145200,15.21,5,15.8,30,120,55.211,-10.0316,34,48
70,2013-07-18 12:06:11,1374149171,55.24153,-10.75488,96,3,2013-07-18 12:00:00,1374148800,15.27,6,15.8,30,0,55.2194,-9.99719999999999,34,48
71,2013-07-18 13:06:09,1374152769,55.19766,-9.97886,4,1,2013-07-18 13:00:00,1374152400,15.3,6,15.8,30,60,55.2194,-9.99719999999999,34,48
72,2013-07-18 14:06:09,1374156369,55.23173,-10.17551,65,2,2013-07-18 14:00:00,1374156000,15.35,7,15.8,30,120,55.2194,-9.99719999999999,34,48
73,2013-07-18 15:06:13,1374159973,55.21303,-10.04073,2,3,2013-07-18 15:00:00,1374159600,15.43,7,15.8,30,0,55.215,-9.9768,34,48
74,2013-07-18 16:06:08,1374163568,55.08626,-7.66919,175,3,2013-07-18 16:00:00,1374163200,15.45,8,15.8,30,60,55.215,-9.9768,34,48
75,2013-07-18 17:06:11,1374167171,55.1686,-9.96798,6,2,2013-07-18 17:00:00,1374166800,15.45,6,15.8,30,120,55.215,-9.9768,34,48
76,2013-07-18 18:06:08,1374170768,55.21303,-10.04073,4,3,2013-07-18 18:00:00,1374170400,15.47,6,15.8,30,0,55.218,-9.98919999999998,34,48
77,2013-07-18 19:06:15,1374174375,55.24723,-9.98976,5,8,2013-07-18 19:00:00,1374174000,15.41,7,15.8,30,60,55.218,-9.98919999999998,34,48
78,2013-07-18 20:06:12,1374177972,55.24723,-9.98976,12,7,2013-07-18 20:00:00,1374177600,15.42,6,15.8,30,120,55.218,-9.98919999999998,34,48
79,2013-07-18 21:06:13,1374181573,55.21816,-9.97886,3,9,2013-07-18 21:00:00,1374181200,15.4,6,15.8,30,0,55.2272,-10.0002,34,48
80,2013-07-18 22:06:08,1374185168,55.21303,-10.04073,5,1,2013-07-18 22:00:00,1374184800,15.39,5,15.8,30,60,55.2272,-10.0002,34,48
81,2013-07-18 23:06:08,1374188768,55.25234,-9.92779,3,1,2013-07-18 23:00:00,1374188400,15.42,6,15.8,30,120,55.2272,-10.0002,34,48
82,2013-07-19 00:06:08,1374192368,55.21816,-9.97886,4,1,2013-07-19 00:00:00,1374192000,15.42,5,15.8,30,0,55.244,-9.96879999999999,34,44
83,2013-07-19 01:06:08,1374195968,55.48648,-5.89963,265,1,2013-07-19 01:00:00,1374195600,15.42,6,15.8,30,60,55.244,-9.96879999999999,34,44
84,2013-07-19 02:06:14,1374199574,55.24723,-9.98976,2,1,2013-07-19 02:00:00,1374199200,15.43,6,15.8,30,120,55.244,-9.96879999999999,34,44
85,2013-07-19 03:06:12,1374203172,55.25234,-9.92779,3,3,2013-07-19 03:00:00,1374202800,15.38,6,15.8,30,0,55.2436,-9.94639999999998,52,44
86,2013-07-19 04:06:09,1374206769,55.25234,-9.92779,3,1,2013-07-19 04:00:00,1374206400,15.34,7,15.8,30,60,55.2436,-9.94639999999998,52,44
87,2013-07-19 05:06:08,1374210368,55.24723,-9.98976,4,1,2013-07-19 05:00:00,1374210000,15.32,8,15.8,30,120,55.2436,-9.94639999999998,52,44
88,2013-07-19 06:06:08,1374213968,55.22326,-9.91696,3,1,2013-07-19 06:00:00,1374213600,15.3,6,15.8,30,0,55.2412,-9.953,64,48
89,2013-07-19 07:06:09,1374217569,55.21816,-9.97886,2,2,2013-07-19 07:00:00,1374217200,15.3,7,15.8,30,60,55.2412,-9.953,64,48
90,2013-07-19 08:06:08,1374221168,55.2677,-9.98976,11,1,2013-07-19 08:00:00,1374220800,15.31,8,15.8,30,120,55.2412,-9.953,64,48
91,2013-07-19 09:06:17,1374224777,55.22326,-9.91696,2,11,2013-07-19 09:00:00,1374224400,15.35,8,15.8,30,0,55.2458,-9.96859999999998,94,48
92,2013-07-19 10:06:08,1374228368,55.14867,-14.99616,326,3,2013-07-19 10:00:00,1374228000,15.38,7,15.8,30,60,55.2458,-9.96859999999998,94,48
93,2013-07-19 11:06:28,1374231988,55.21816,-9.97886,5,2,2013-07-19 11:00:00,1374231600,15.42,6,15.8,30,120,55.2458,-9.96859999999998,94,48
94,2013-07-19 12:06:13,1374235573,55.41364,-12.80987,193,4,2013-07-19 12:00:00,1374235200,15.49,7,15.8,30,0,55.2564,-9.95480000000001,64,48
95,2013-07-19 13:06:08,1374239168,55.21816,-9.97886,6,2,2013-07-19 13:00:00,1374238800,15.56,6,15.8,30,60,55.2564,-9.95480000000001,64,48
96,2013-07-19 14:06:08,1374242768,55.22326,-9.91696,3,2,2013-07-19 14:00:00,1374242400,15.62,7,15.8,30,120,55.2564,-9.95480000000001,64,48
97,2013-07-19 15:06:19,1374246379,55.22326,-9.91696,2,2,2013-07-19 15:00:00,1374246000,15.71,8,15.8,30,0,55.2556,-9.94219999999999,52,48
98,2013-07-19 16:06:09,1374249969,55.22371,-9.15234,78,2,2013-07-19 16:00:00,1374249600,15.74,10,15.8,30,60,55.2556,-9.94219999999999,52,48
99,2013-07-19 17:06:08,1374253568,55.24723,-9.98976,2,2,2013-07-19 17:00:00,1374253200,15.76,7,15.8,30,120,55.2556,-9.94219999999999,52,48
100,2013-07-19 18:06:08,1374257168,55.23765,-8.96609,97,1,2013-07-19 18:00:00,1374256800,15.75,9,15.8,30,0,55.2576,-9.96079999999998,64,48
101,2013-07-19 19:06:08,1374260768,55.29679,-10.00068,3,2,2013-07-19 19:00:00,1374260400,15.73,9,15.8,30,60,55.2576,-9.96079999999998,64,48
102,2013-07-19 20:06:09,1374264369,55.24723,-9.98976,13,4,2013-07-19 20:00:00,1374264000,15.74,8,15.8,30,120,55.2576,-9.96079999999998,64,48
103,2013-07-19 21:06:11,1374267971,55.27281,-9.92779,2,3,2013-07-19 21:00:00,1374267600,15.75,8,15.8,30,0,55.273,-9.96599999999998,38,44
104,2013-07-19 22:06:15,1374271575,55.25234,-9.92779,4,2,2013-07-19 22:00:00,1374271200,15.78,9,15.8,30,60,55.273,-9.96599999999998,38,44
105,2013-07-19 23:06:08,1374275168,55.24723,-9.98976,9,1,2013-07-19 23:00:00,1374274800,15.82,9,15.8,30,120,55.273,-9.96599999999998,38,44
106,2013-07-20 00:06:24,1374278784,55.27281,-9.92779,2,2,2013-07-20 00:00:00,1374278400,15.83,8,15.8,30,0,55.2808,-9.94280000000001,64,44
107,2013-07-20 01:06:07,1374282367,55.30698,-9.8766,4,1,2013-07-20 01:00:00,1374282000,15.81,8,15.8,30,60,55.2808,-9.94280000000001,64,44
108,2013-07-20 02:06:08,1374285968,55.25234,-9.92779,3,1,2013-07-20 02:00:00,1374285600,15.78,7,15.8,30,120,55.2808,-9.94280000000001,64,44
109,2013-07-20 03:06:08,1374289568,55.3019,-9.93865,7,1,2013-07-20 03:00:00,1374289200,15.74,6,15.8,30,0,55.2818,-9.92099999999999,34,48
110,2013-07-20 04:06:15,1374293175,55.25741,-9.86581,2,1,2013-07-20 04:00:00,1374292800,15.76,6,15.8,30,60,55.2818,-9.92099999999999,34,48
111,2013-07-20 05:06:10,1374296770,55.24723,-9.98976,3,1,2013-07-20 05:00:00,1374296400,15.77,7,15.8,30,120,55.2818,-9.92099999999999,34,48
112,2013-07-20 06:06:10,1374300370,55.2677,-9.98976,2,2,2013-07-20 06:00:00,1374300000,15.8,8,15.8,30,0,55.2766,-9.92359999999999,58,40
113,2013-07-20 07:06:09,1374303969,55.3019,-9.93865,12,1,2013-07-20 07:00:00,1374303600,15.82,6,15.8,30,60,55.2766,-9.92359999999999,58,40
114,2013-07-20 08:06:11,1374307571,55.27788,-9.86581,2,4,2013-07-20 08:00:00,1374307200,15.86,7,15.8,30,120,55.2766,-9.92359999999999,58,40
115,2013-07-20 09:06:08,1374311168,55.29679,-10.00068,2,1,2013-07-20 09:00:00,1374310800,15.91,7,15.8,30,0,55.2862,-9.9468,34,48
116,2013-07-20 10:06:09,1374314769,55.27281,-9.92779,8,0,2013-07-20 10:00:00,1374314400,15.95,7,15.8,30,60,55.2862,-9.9468,34,48
117,2013-07-20 11:06:10,1374318370,55.29679,-10.00068,1,3,2013-07-20 11:00:00,1374318000,16.27,6,15.8,30,120,55.2862,-9.9468,34,48
118,2013-07-20 12:06:08,1374321968,55.58278,-15.36094,354,3,2013-07-20 12:00:00,1374321600,16.4,7,15.8,30,0,55.2946,-9.9332,34,48
119,2013-07-20 13:06:10,1374325570,55.3019,-9.93865,6,2,2013-07-20 13:00:00,1374325200,16.58,6,15.8,30,60,55.2946,-9.9332,34,48
120,2013-07-20 14:06:08,1374329168,55.48877,-14.38925,10,2,2013-07-20 14:00:00,1374328800,16.73,6,15.8,30,120,55.2946,-9.9332,34,48
121,2013-07-20 15:06:08,1374332768,55.30698,-9.8766,3,2,2013-07-20 15:00:00,1374332400,16.77,6,15.8,30,0,55.294,-9.90539999999999,34,48
122,2013-07-20 16:06:09,1374336369,55.3764,-11.37182,116,3,2013-07-20 16:00:00,1374336000,17.07,6,15.8,30,60,55.294,-9.90539999999999,34,48
123,2013-07-20 17:06:09,1374339969,55.3019,-9.93865,2,7,2013-07-20 17:00:00,1374339600,17.02,7,15.8,30,120,55.294,-9.90539999999999,34,48
124,2013-07-20 18:06:10,1374343570,55.22371,-9.15234,173,1,2013-07-20 18:00:00,1374343200,17.13,6,15.8,30,0,55.2882,-9.90859999999998,58,44
125,2013-07-20 19:06:07,1374347167,55.27788,-9.86581,2,2,2013-07-20 19:00:00,1374346800,17.13,5,15.8,30,60,55.2882,-9.90859999999998,58,44
126,2013-07-20 20:06:09,1374350769,55.24425,-8.45923,117,1,2013-07-20 20:00:00,1374350400,17.09,7,15.8,30,120,55.2882,-9.90859999999998,58,44
127,2013-07-20 21:06:07,1374354367,55.29679,-10.00068,2,2,2013-07-20 21:00:00,1374354000,17.07,6,15.8,30,0,55.298,-9.94280000000001,34,48
128,2013-07-20 22:06:07,1374357967,55.29679,-10.00068,3,1,2013-07-20 22:00:00,1374357600,17,5,15.8,30,60,55.298,-9.94280000000001,34,48
129,2013-07-20 23:06:09,1374361569,55.30698,-9.8766,2,4,2013-07-20 23:00:00,1374361200,16.89,6,15.8,30,120,55.298,-9.94280000000001,34,48
130,2013-07-21 00:06:10,1374365170,55.27281,-9.92779,2,2,2013-07-21 00:00:00,1374364800,16.8,5,15.8,30,0,55.3168,-9.91299999999998,34,48
131,2013-07-21 01:06:07,1374368767,55.35654,-9.88742,22,1,2013-07-21 01:00:00,1374368400,16.71,6,15.8,30,60,55.3168,-9.91299999999998,34,48
132,2013-07-21 02:06:08,1374372368,55.31204,-9.81452,2,1,2013-07-21 02:00:00,1374372000,16.8,6,15.8,30,120,55.3168,-9.91299999999998,34,48
133,2013-07-21 03:06:07,1374375967,55.44108,-7.28968,177,1,2013-07-21 03:00:00,1374375600,16.59,6,15.8,30,0,55.3214,-9.8682,12,48
134,2013-07-21 04:06:08,1374379568,55.30698,-9.8766,2,1,2013-07-21 04:00:00,1374379200,16.36,6,15.8,30,60,55.3214,-9.8682,12,48
135,2013-07-21 05:06:09,1374383169,55.30698,-9.8766,4,8,2013-07-21 05:00:00,1374382800,16.28,7,15.8,30,120,55.3214,-9.8682,12,48
136,2013-07-21 06:06:07,1374386767,55.31204,-9.81452,2,1,2013-07-21 06:00:00,1374386400,16.26,7,15.8,30,0,55.3088,-9.852,94,48
137,2013-07-21 07:06:07,1374390367,55.3019,-9.93865,3,0,2013-07-21 07:00:00,1374390000,16.26,6,15.8,30,60,55.3088,-9.852,94,48
138,2013-07-21 08:06:09,1374393969,55.3019,-9.93865,3,1,2013-07-21 08:00:00,1374393600,16.36,6,15.8,30,120,55.3088,-9.852,94,48
139,2013-07-21 09:06:07,1374397567,55.27281,-9.92779,4,1,2013-07-21 09:00:00,1374397200,16.45,7,15.8,30,0,55.3066,-9.89179999999999,34,44
140,2013-07-21 10:06:07,1374401167,55.32743,-9.8766,6,1,2013-07-21 10:00:00,1374400800,16.61,6,15.8,30,60,55.3066,-9.89179999999999,34,44
141,2013-07-21 11:06:09,1374404769,55.30698,-9.8766,2,3,2013-07-21 11:00:00,1374404400,16.75,7,15.8,30,120,55.3066,-9.89179999999999,34,44
142,2013-07-21 12:06:10,1374408370,55.35145,-9.94954,4,2,2013-07-21 12:00:00,1374408000,16.91,6,15.8,30,0,55.3272,-9.91479999999999,34,48
143,2013-07-21 13:06:07,1374411967,55.30698,-9.8766,4,2,2013-07-21 13:00:00,1374411600,16.81,7,15.8,30,60,55.3272,-9.91479999999999,34,48
144,2013-07-21 14:06:09,1374415569,55.3616,-9.82528,4,1,2013-07-21 14:00:00,1374415200,16.93,6,15.8,30,120,55.3272,-9.91479999999999,34,48
145,2013-07-21 15:06:07,1374419167,55.35654,-9.88742,2,2,2013-07-21 15:00:00,1374418800,16.95,7,15.8,30,0,55.3496,-9.87199999999999,112,44
146,2013-07-21 16:06:10,1374422770,55.44207,-11.84307,161,1,2013-07-21 16:00:00,1374422400,16.92,8,15.8,30,60,55.3496,-9.87199999999999,112,44
147,2013-07-21 17:06:07,1374426367,55.31204,-9.81452,7,3,2013-07-21 17:00:00,1374426000,16.88,7,15.8,30,120,55.3496,-9.87199999999999,112,44
148,2013-07-21 18:06:05,1374429965,55.38052,-10.66619,87,2,2013-07-21 18:00:00,1374429600,16.85,8,15.8,30,0,55.3408,-9.83599999999998,38,44
149,2013-07-21 19:06:07,1374433567,55.3616,-9.82528,5,2,2013-07-21 19:00:00,1374433200,16.86,7,15.8,30,60,55.3408,-9.83599999999998,38,44
150,2013-07-21 20:06:09,1374437169,55.36951,-10.7902,109,2,2013-07-21 20:00:00,1374436800,16.86,7,15.8,30,120,55.3408,-9.83599999999998,38,44
151,2013-07-21 21:06:07,1374440767,55.35654,-9.88742,4,1,2013-07-21 21:00:00,1374440400,16.9,7,15.8,30,0,55.3338,-9.87260000000001,64,48
152,2013-07-21 22:06:07,1374444367,55.3019,-9.93865,13,1,2013-07-21 22:00:00,1374444000,16.89,7,15.8,30,60,55.3338,-9.87260000000001,64,48
153,2013-07-21 23:06:07,1374447967,55.35654,-9.88742,3,2,2013-07-21 23:00:00,1374447600,16.89,6,15.8,30,120,55.3338,-9.87260000000001,64,48
154,2013-07-22 00:06:07,1374451567,55.35654,-9.88742,2,1,2013-07-22 00:00:00,1374451200,16.82,5,15.8,30,0,55.3606,-9.90959999999998,36,44
155,2013-07-22 01:06:07,1374455167,55.36508,-10.14685,69,1,2013-07-22 01:00:00,1374454800,16.66,7,15.8,30,60,55.3606,-9.90959999999998,36,44
156,2013-07-22 02:06:07,1374458767,55.35654,-9.88742,5,1,2013-07-22 02:00:00,1374458400,16.64,6,15.8,30,120,55.3606,-9.90959999999998,36,44
157,2013-07-22 03:06:08,1374462368,55.42034,-8.94307,125,1,2013-07-22 03:00:00,1374462000,16.63,7,15.8,30,0,55.3862,-9.86679999999998,66,44
158,2013-07-22 04:06:07,1374465967,55.41114,-9.83605,2,1,2013-07-22 04:00:00,1374465600,16.65,7,15.8,30,60,55.3862,-9.86679999999998,66,44
159,2013-07-22 05:06:09,1374469569,55.40607,-9.89826,7,7,2013-07-22 05:00:00,1374469200,16.52,9,15.8,30,120,55.3862,-9.86679999999998,66,44
160,2013-07-22 06:06:12,1374473172,55.41114,-9.83605,4,1,2013-07-22 06:00:00,1374472800,16.61,7,15.8,30,0,55.3774,-9.82139999999998,60,44
161,2013-07-22 07:06:07,1374476767,55.35654,-9.88742,5,0,2013-07-22 07:00:00,1374476400,16.56,7,15.8,30,60,55.3774,-9.82139999999998,60,44
162,2013-07-22 08:06:09,1374480369,55.41114,-9.83605,7,1,2013-07-22 08:00:00,1374480000,16.58,7,15.8,30,120,55.3774,-9.82139999999998,60,44
163,2013-07-22 09:06:12,1374483972,55.32743,-9.8766,24,1,2013-07-22 09:00:00,1374483600,16.61,7,15.6,30,0,55.3624,-9.83099999999999,66,48
164,2013-07-22 10:06:07,1374487567,55.3616,-9.82528,1,0,2013-07-22 10:00:00,1374487200,16.8,6,15.6,30,60,55.3624,-9.83099999999999,66,48
165,2013-07-22 11:06:09,1374491169,55.35654,-9.88742,7,2,2013-07-22 11:00:00,1374490800,16.89,6,15.6,30,120,55.3624,-9.83099999999999,66,48
166,2013-07-22 12:06:09,1374494769,55.3616,-9.82528,2,3,2013-07-22 12:00:00,1374494400,17.01,6,15.6,30,0,55.3674,-9.88200000000001,36,48
167,2013-07-22 13:06:07,1374498367,55.38567,-9.89826,1,1,2013-07-22 13:00:00,1374498000,17.07,5,15.6,30,60,55.3674,-9.88200000000001,36,48
168,2013-07-22 14:06:09,1374501969,55.40607,-9.89826,3,3,2013-07-22 14:00:00,1374501600,17.08,7,15.6,30,120,55.3674,-9.88200000000001,36,48
169,2013-07-22 15:06:09,1374505569,55.3616,-9.82528,2,4,2013-07-22 15:00:00,1374505200,17.14,6,15.6,30,0,55.3956,-9.87539999999998,60,48
170,2013-07-22 16:06:07,1374509167,55.38704,-9.76311,4,2,2013-07-22 16:00:00,1374508800,17.18,7,15.6,30,60,55.3956,-9.87539999999998,60,48
171,2013-07-22 17:06:06,1374512766,55.41114,-9.83605,2,3,2013-07-22 17:00:00,1374512400,17.14,6,15.6,30,120,55.3956,-9.87539999999998,60,48
172,2013-07-22 18:06:11,1374516371,55.39074,-9.83605,3,6,2013-07-22 18:00:00,1374516000,17.15,7,15.6,30,0,55.405,-9.81439999999998,66,48
173,2013-07-22 19:06:07,1374519967,55.41114,-9.83605,3,2,2013-07-22 19:00:00,1374519600,16.95,8,15.6,30,60,55.405,-9.81439999999998,66,48
174,2013-07-22 20:06:06,1374523566,55.39881,-10.34436,110,4,2013-07-22 20:00:00,1374523200,16.87,7,15.6,30,120,55.405,-9.81439999999998,66,48
175,2013-07-22 21:06:07,1374527167,55.41618,-9.77382,2,2,2013-07-22 21:00:00,1374526800,16.65,6,15.6,30,0,55.3988,-9.8108,66,44
176,2013-07-22 22:06:06,1374530766,55.3616,-9.82528,4,2,2013-07-22 22:00:00,1374530400,16.91,9,15.6,30,60,55.3988,-9.8108,66,44
177,2013-07-22 23:06:10,1374534370,55.3616,-9.82528,6,2,2013-07-22 23:00:00,1374534000,17.03,6,15.6,30,120,55.3988,-9.8108,66,44
178,2013-07-23 00:06:09,1374537969,55.3616,-9.82528,4,1,2013-07-23 00:00:00,1374537600,16.97,7,15.6,30,0,55.3992,-9.84699999999998,36,48
179,2013-07-23 01:06:15,1374541575,55.31439,-11.80428,145,4,2013-07-23 01:00:00,1374541200,16.87,4,15.6,30,60,55.3992,-9.84699999999998,36,48
180,2013-07-23 02:06:11,1374545171,55.35654,-9.88742,3,2,2013-07-23 02:00:00,1374544800,16.73,5,15.6,30,120,55.3992,-9.84699999999998,36,48
181,2013-07-23 03:06:12,1374548772,55.47453,-8.89042,99,1,2013-07-23 03:00:00,1374548400,16.67,5,15.6,30,0,55.4198,-9.84559999999999,10,48
182,2013-07-23 04:06:15,1374552375,55.41618,-9.77382,2,3,2013-07-23 04:00:00,1374552000,16.7,4,15.6,30,60,55.4198,-9.84559999999999,10,48
183,2013-07-23 05:06:20,1374555980,55.49258,-8.6403,99,1,2013-07-23 05:00:00,1374555600,16.71,4,15.6,30,120,55.4198,-9.84559999999999,10,48
184,2013-07-23 06:06:09,1374559569,55.41114,-9.83605,2,1,2013-07-23 06:00:00,1374559200,16.68,5,15.6,30,0,55.4288,-9.80799999999999,36,48
185,2013-07-23 07:06:06,1374563166,55.41114,-9.83605,3,1,2013-07-23 07:00:00,1374562800,16.68,5,15.6,30,60,55.4288,-9.80799999999999,36,48
186,2013-07-23 08:06:10,1374566770,55.41618,-9.77382,1,3,2013-07-23 08:00:00,1374566400,16.69,5,15.6,30,120,55.4288,-9.80799999999999,36,48
187,2013-07-23 09:06:06,1374570366,55.68038,-5.60927,276,1,2013-07-23 09:00:00,1374570000,16.75,5,15.6,30,0,55.4246,-9.79919999999998,36,48
188,2013-07-23 10:06:08,1374573968,55.41114,-9.83605,5,1,2013-07-23 10:00:00,1374573600,16.68,6,15.6,30,60,55.4246,-9.79919999999998,36,48
189,2013-07-23 11:06:17,1374577577,55.40607,-9.89826,2,15,2013-07-23 11:00:00,1374577200,16.74,6,15.6,30,120,55.4246,-9.79919999999998,36,48
190,2013-07-23 12:06:06,1374581166,55.40607,-9.89826,2,2,2013-07-23 12:00:00,1374580800,16.79,5,15.6,30,0,55.413,-9.82980000000001,36,48
191,2013-07-23 13:06:07,1374584767,55.44029,-9.84685,9,2,2013-07-23 13:00:00,1374584400,16.83,6,15.6,30,60,55.413,-9.82980000000001,36,48
192,2013-07-23 14:06:09,1374588369,55.41114,-9.83605,3,2,2013-07-23 14:00:00,1374588000,17.06,5,15.6,30,120,55.413,-9.82980000000001,36,48
193,2013-07-23 15:06:09,1374591969,55.40607,-9.89826,3,3,2013-07-23 15:00:00,1374591600,16.89,4,15.6,30,0,55.4234,-9.8528,36,48
194,2013-07-23 16:06:06,1374595566,55.44029,-9.84685,5,3,2013-07-23 16:00:00,1374595200,16.91,5,15.6,30,60,55.4234,-9.8528,36,48
195,2013-07-23 17:06:06,1374599166,55.44029,-9.84685,3,4,2013-07-23 17:00:00,1374598800,17.03,5,15.6,30,120,55.4234,-9.8528,36,48
196,2013-07-23 18:06:06,1374602766,55.65701,-13.28057,235,6,2013-07-23 18:00:00,1374602400,16.92,5,15.6,30,0,55.439,-9.8202,36,48
197,2013-07-23 19:06:07,1374606367,55.41618,-9.77382,6,4,2013-07-23 19:00:00,1374606000,16.72,7,15.6,30,60,55.439,-9.8202,36,48
198,2013-07-23 20:06:07,1374609967,55.5875,-12.60453,191,3,2013-07-23 20:00:00,1374609600,16.71,5,15.6,30,120,55.439,-9.8202,36,48
199,2013-07-23 21:06:06,1374613566,55.44029,-9.84685,1,2,2013-07-23 21:00:00,1374613200,16.64,6,15.6,30,0,55.439,-9.79599999999999,12,40
200,2013-07-23 22:06:06,1374617166,55.55521,-12.32941,180,6,2013-07-23 22:00:00,1374616800,16.61,6,15.6,30,60,55.439,-9.79599999999999,12,40
201,2013-07-23 23:06:06,1374620766,55.41618,-9.77382,2,2,2013-07-23 23:00:00,1374620400,16.6,6,15.6,30,120,55.439,-9.79599999999999,12,40
202,2013-07-24 00:06:06,1374624366,55.41114,-9.83605,3,1,2013-07-24 00:00:00,1374624000,16.56,8,15.6,30,0,55.4302,-9.81139999999999,36,44
203,2013-07-24 01:06:07,1374627967,55.41114,-9.83605,3,2,2013-07-24 01:00:00,1374627600,16.48,7,15.6,30,60,55.4302,-9.81139999999999,36,44
204,2013-07-24 02:06:06,1374631566,55.41618,-9.77382,2,3,2013-07-24 02:00:00,1374631200,16.48,6,15.6,30,120,55.4302,-9.81139999999999,36,44
205,2013-07-24 03:06:06,1374635166,55.36467,-11.49552,126,1,2013-07-24 03:00:00,1374634800,16.52,6,15.6,30,0,55.4322,-9.83499999999998,8,44
206,2013-07-24 04:06:06,1374638766,55.41114,-9.83605,2,1,2013-07-24 04:00:00,1374638400,16.61,6,15.6,30,60,55.4322,-9.83499999999998,8,44
207,2013-07-24 05:06:12,1374642372,55.53059,-7.94201,171,5,2013-07-24 05:00:00,1374642000,16.55,7,15.6,30,120,55.4322,-9.83499999999998,8,44
208,2013-07-24 06:06:06,1374645966,55.46571,-9.78456,2,0,2013-07-24 06:00:00,1374645600,16.54,7,15.6,30,0,55.4526,-9.80679999999998,54,48
209,2013-07-24 07:06:06,1374649566,55.53477,-8.32718,114,1,2013-07-24 07:00:00,1374649200,16.47,6,15.6,30,60,55.4526,-9.80679999999998,54,48
210,2013-07-24 08:06:08,1374653168,55.46571,-9.78456,3,1,2013-07-24 08:00:00,1374652800,16.51,8,15.6,30,120,55.4526,-9.80679999999998,54,48
211,2013-07-24 10:06:07,1374660367,55.46571,-9.78456,4,1,2013-07-24 09:00:00,1374656400,16.45,8,15.6,30,0,55.453,-9.77019999999999,66,48
212,2013-07-24 10:06:20,1374660380,55.47073,-9.72224,5,0,2013-07-24 10:00:00,1374660000,16.29,8,15.6,255,60,55.453,-9.77019999999999,66,48
213,2013-07-24 11:06:08,1374663968,55.41114,-9.83605,4,3,2013-07-24 11:00:00,1374663600,16.21,9,15.6,30,120,55.453,-9.77019999999999,66,48
214,2013-07-24 12:06:06,1374667566,55.46067,-9.84685,4,2,2013-07-24 12:00:00,1374667200,16.24,8,15.6,30,0,55.4352,-9.7946,96,48
215,2013-07-24 13:06:07,1374671167,55.41114,-9.83605,5,2,2013-07-24 13:00:00,1374670800,16.23,9,15.6,30,60,55.4352,-9.7946,96,48
216,2013-07-24 14:06:10,1374674770,55.44534,-9.78456,2,3,2013-07-24 14:00:00,1374674400,16.24,10,15.6,30,120,55.4352,-9.7946,96,48
217,2013-07-24 15:06:06,1374678366,55.44029,-9.84685,2,3,2013-07-24 15:00:00,1374678000,16.26,8,15.6,30,0,55.4408,-9.83179999999999,40,44
218,2013-07-24 16:06:07,1374681967,55.43522,-9.90912,12,4,2013-07-24 16:00:00,1374681600,16.28,8,15.6,30,60,55.4408,-9.83179999999999,40,44
219,2013-07-24 17:06:07,1374685567,55.41618,-9.77382,9,4,2013-07-24 17:00:00,1374685200,16.33,6,15.6,30,120,55.4408,-9.83179999999999,40,44
220,2013-07-24 18:06:06,1374689166,55.77064,-14.84099,326,3,2013-07-24 18:00:00,1374688800,16.42,8,15.6,30,0,55.4674,-9.81780000000001,36,48
221,2013-07-24 19:06:05,1374692765,55.46067,-9.84685,2,3,2013-07-24 19:00:00,1374692400,16.46,7,15.6,30,60,55.4674,-9.81780000000001,36,48
222,2013-07-24 20:06:08,1374696368,55.49488,-9.79531,10,2,2013-07-24 20:00:00,1374696000,16.39,5,15.6,30,120,55.4674,-9.81780000000001,36,48
223,2013-07-24 21:06:08,1374699968,55.49488,-9.79531,5,3,2013-07-24 21:00:00,1374699600,16.4,8,15.6,30,0,55.4768,-9.76900000000001,66,48
224,2013-07-24 22:06:05,1374703565,55.46571,-9.78456,2,2,2013-07-24 22:00:00,1374703200,16.37,7,15.6,30,60,55.4768,-9.76900000000001,66,48
225,2013-07-24 23:06:07,1374707167,55.47073,-9.72224,3,12,2013-07-24 23:00:00,1374706800,16.37,9,15.6,30,120,55.4768,-9.76900000000001,66,48
226,2013-07-25 00:06:08,1374710768,55.41618,-9.77382,3,2,2013-07-25 00:00:00,1374710400,16.4,8,15.6,30,0,55.4554,-9.768,60,44
227,2013-07-25 01:06:09,1374714369,55.37023,-14.35787,298,1,2013-07-25 01:00:00,1374714000,16.37,8,15.6,30,60,55.4554,-9.768,60,44